Johnstown, PA

11:51 AM EDT on June 27, 2017 (GMT -0400)
Johnstown-Cambria County

Weather History for KJST - July, 2013

Change the Weather History Date:

Tuesday, July 9, 2013

  Actual Average Record
Temperature  
Mean Temperature 71 °F 69 °F  
Max Temperature 76 °F 79 °F 104 °F (1936)
Min Temperature 65 °F 60 °F 44 °F (1963)
Degree Days  
Heating Degree Days 0 0  
Month to date heating degree days 0 8  
Since 1 June heating degree days 63 87  
Since 1 July heating degree days 0 8  
Cooling Degree Days 6 5  
Month to date cooling degree days 60 40  
Year to date cooling degree days 169 133  
Since 1 June cooling degree days 129 115  
Growing Degree Days 20 (Base 50)    
Moisture  
Dew Point 65 °F    
Average Humidity 86    
Maximum Humidity 93    
Minimum Humidity 79    
Precipitation  
Precipitation 0.05 in 0.12 in 2.00 in (1904)
Month to date precipitation 0.88 1.05  
Year to date precipitation 9.12 17.69  
Sea Level Pressure  
Sea Level Pressure 30.11 in    
Wind  
Wind Speed 7 mph (SW)    
Max Wind Speed 15 mph    
Max Gust Speed 29 mph    
Visibility 6 miles    
Events Rain    
T = Trace of Precipitation, MM = Missing Value Source: NWS Daily Summary

Daily Weather History Graph

Daily Weather History Graph

Search for Another Location

Airport or City:

Trip Planner

Search our weather history database for the weather conditions in past years. The results will help you decide how hot, cold, wet, or windy it might be!

Date:

Astronomy

Jul. 09, 2013 Rise Set
Actual Time 5:53 AM EDT 8:46 PM EDT
Civil Twilight 5:21 AM EDT 9:19 PM EDT
Nautical Twilight 4:40 AM EDT 10:00 PM EDT
Astronomical Twilight 3:53 AM EDT 10:47 PM EDT
Moon 7:16 AM EDT (7/9) 9:22 PM EDT (7/9)
Length of Visible Light 15h 57m
Length of Day
14h 52m
New Moon, 2% of the Moon is Illuminated
Jul 9
New Moon
Jul 15
First Quarter
Jul 22
Full
Jul 29
Last Quarter
Aug 6
New

Hourly Weather History & Observations

Time (EDT) Temp. Dew Point Humidity Pressure Visibility Wind Dir Wind Speed Gust Speed Precip Events Conditions
12:54 AM 68.0 °F 64.0 °F 87% 30.13 in 8.0 mi SSW 5.8 mph - N/A   Partly Cloudy
1:54 AM 68.0 °F 64.0 °F 87% 30.12 in 7.0 mi SSW 8.1 mph - N/A   Clear
2:32 AM 68.0 °F 64.4 °F 88% 30.16 in 6.0 mi SSW 4.6 mph - N/A   Mostly Cloudy
2:44 AM 66.2 °F 64.4 °F 94% 30.16 in 5.0 mi West 3.5 mph - N/A   Overcast
2:54 AM 66.9 °F 64.9 °F 93% 30.12 in 5.0 mi West 3.5 mph - N/A   Overcast
3:42 AM 66.2 °F 64.4 °F 94% 30.16 in 2.5 mi West 4.6 mph - 0.02 in Rain Light Rain
3:54 AM 66.0 °F 64.9 °F 96% 30.12 in 2.0 mi WSW 4.6 mph - 0.02 in Rain Light Rain
4:06 AM 66.2 °F 64.4 °F 94% 30.16 in 1.8 mi SW 5.8 mph - 0.00 in Rain Light Rain
4:10 AM 66.2 °F 64.4 °F 94% 30.16 in 2.0 mi SW 5.8 mph - 0.00 in Rain Light Rain
4:24 AM 66.2 °F 64.4 °F 94% 30.16 in 3.0 mi WSW 4.6 mph - 0.01 in Rain Light Rain
4:46 AM 66.2 °F 64.4 °F 94% 30.16 in 2.5 mi WSW 3.5 mph - 0.01 in   Overcast
4:54 AM 66.0 °F 64.9 °F 96% 30.12 in 2.5 mi Calm Calm - 0.01 in   Overcast
5:20 AM 66.2 °F 64.4 °F 94% 30.15 in 3.0 mi South 4.6 mph - 0.00 in Rain Light Rain
5:54 AM 66.0 °F 64.0 °F 93% 30.12 in 6.0 mi SSW 6.9 mph - 0.00 in Rain Light Rain
6:54 AM 64.9 °F 64.0 °F 97% 30.13 in 5.0 mi SW 3.5 mph - 0.00 in   Overcast
7:45 AM 66.2 °F 64.4 °F 94% 30.16 in 6.0 mi SSW 6.9 mph - N/A   Mostly Cloudy
7:54 AM 66.0 °F 64.0 °F 93% 30.12 in 6.0 mi SW 4.6 mph - N/A   Overcast
8:23 AM 66.2 °F 64.4 °F 94% 30.15 in 8.0 mi SSW 8.1 mph - N/A   Overcast
8:54 AM 66.0 °F 64.0 °F 93% 30.12 in 7.0 mi SSW 9.2 mph - N/A   Overcast
9:54 AM 66.9 °F 63.0 °F 87% 30.12 in 8.0 mi SSW 10.4 mph - 0.00 in   Overcast
10:02 AM 66.2 °F 62.6 °F 88% 30.15 in 7.0 mi SW 8.1 mph - 0.00 in Rain Light Rain
10:32 AM 66.2 °F 64.4 °F 94% 30.15 in 4.0 mi South 6.9 mph - 0.01 in Rain Light Rain
10:54 AM 66.9 °F 63.0 °F 87% 30.12 in 5.0 mi SSW 6.9 mph - 0.02 in Rain Light Rain
11:15 AM 66.2 °F 64.4 °F 94% 30.15 in 5.0 mi SSW 6.9 mph - 0.00 in Rain Light Rain
11:54 AM 66.9 °F 64.9 °F 93% 30.11 in 4.0 mi SSW 8.1 mph - 0.00 in   Overcast
12:04 PM 68.0 °F 64.4 °F 88% 30.14 in 5.0 mi SSW 9.2 mph - N/A   Overcast
12:45 PM 69.8 °F 66.2 °F 88% 30.14 in 6.0 mi SW 9.2 mph - N/A   Overcast
12:54 PM 69.1 °F 64.9 °F 87% 30.10 in 7.0 mi SW 10.4 mph - N/A   Overcast
1:54 PM 71.1 °F 66.0 °F 84% 30.09 in 6.0 mi WSW 9.2 mph - N/A   Haze
2:54 PM 73.0 °F 66.9 °F 81% 30.08 in 5.0 mi WSW 9.2 mph - N/A   Haze
3:54 PM 72.0 °F 66.9 °F 84% 30.07 in 5.0 mi SW 6.9 mph - N/A   Haze
4:36 PM 75.2 °F 68.0 °F 78% 30.09 in 6.0 mi WSW 10.4 mph - N/A   Haze
4:54 PM 75.0 °F 68.0 °F 79% 30.04 in 6.0 mi WSW 11.5 mph 17.3 mph N/A   Haze
5:35 PM 75.2 °F 68.0 °F 78% 30.08 in 6.0 mi WSW 9.2 mph - N/A   Haze
5:54 PM 75.0 °F 68.0 °F 79% 30.04 in 6.0 mi West 9.2 mph - N/A   Haze
6:54 PM 75.0 °F 68.0 °F 79% 30.04 in 6.0 mi WSW 8.1 mph - N/A   Haze
7:54 PM 73.9 °F 68.0 °F 82% 30.04 in 5.0 mi WSW 5.8 mph - N/A   Haze
8:54 PM 73.0 °F 68.0 °F 84% 30.04 in 4.0 mi SSW 6.9 mph - N/A   Haze
9:54 PM 73.0 °F 68.0 °F 84% 30.06 in 5.0 mi SSW 9.2 mph - N/A   Haze
10:27 PM 71.6 °F 64.4 °F 78% 30.10 in 8.0 mi SW 8.1 mph 17.3 mph N/A   Scattered Clouds
10:54 PM 69.1 °F 64.0 °F 84% 30.05 in 10.0 mi SW 5.8 mph - 0.00 in   Partly Cloudy
11:37 PM 69.8 °F 64.4 °F 83% 30.09 in 10.0 mi SW 6.9 mph - N/A   Mostly Cloudy
11:50 PM 69.8 °F 64.4 °F 83% 30.08 in 10.0 mi SSW 8.1 mph - N/A   Mostly Cloudy
11:54 PM 69.1 °F 64.9 °F 87% 30.05 in 10.0 mi SSW 6.9 mph - N/A   Mostly Cloudy